Regional Weather Roundup
Issued by NWS State College, PA

Home | Current Version | Previous Version | Graphics & Text | Print | Product List | Glossary Off
Versions: 1 2 3 4 5 6 7 8 9 10 11 12 13 14 15 16 17 18 19 20 21 22 23 24 25 26 27 28 29 30 31 32 33 34 35 36 37 38 39 40 41 42 43 44 45 46 47 48 49 50

000
ASUS41 KCTP 182003
RWRCTP

REGIONAL WEATHER ROUNDUP
NATIONAL WEATHER SERVICE STATE COLLEGE PA
400 PM EDT SAT APR 18 2015

Note: "fair" indicates few or no clouds below 12,000 feet with no
significant weather and/or obstructions to visibility.

* = STATION THAT DOES NOT REPORT PRECIPITATION /E.G. RAIN...SNOW...ETC/
    THUNDER OR FOG.

PAZ002>004-007>009-013>016-020>023-029>032-182100-
WESTERN PENNSYLVANIA

CITY           SKY/WX    TMP DP  RH WIND       PRES   REMARKS
ERIE           SUNNY     65  41  41 W9        30.06S
MEADVILLE      SUNNY     70  43  37 NW10      30.05R
FRANKLIN*      MOSUNNY   73  43  33 N10G18    30.04F
NEW CASTLE     FAIR      74  45  35 NW8       30.04R
BEAVER COUNTY  MOSUNNY   75  43  31 NW7       30.03S
BUTLER*        MOSUNNY   73  43  33 NW6       30.04S
PITTSBURGH INT PTSUNNY   77  40  26 NE14      30.02R
PITTSBURGH     MOSUNNY   76  33  21 N10       30.01S
INDIANA*       SUNNY     75  41  29 NW10      30.03F
LATROBE        NOT AVBL
WASHINGTON CO* PTSUNNY   75  41  29 N6        30.05R
$$

PAZ004>006-010>012-017>019-024>028-033>037-041-042-045-046-049>053-182100-
CENTRAL PENNSYLVANIA

CITY           SKY/WX    TMP DP  RH WIND       PRES   REMARKS
BRADFORD       SUNNY     69  37  30 NW21G26   30.02S
DUBOIS         PTSUNNY   75  37  25 NW15G21   30.00F
CLEARFIELD     MOSUNNY   75  39  27 NW13      29.98F
JOHNSTOWN      SUNNY     72  36  26 N10       30.01F
ALTOONA        SUNNY     76  38  25 NW14      29.99F
STATE COLLEGE  MOSUNNY   77  39  25 W10       29.95F
WILLIAMSPORT   MOSUNNY   82  37  20 W17       29.89F
SELINSGROVE    SUNNY     79  42  26 W9G17     29.92F
FT INDIANTOWN  SUNNY     80  39  23 NW9G23    29.91F
CAPITAL CITY   SUNNY     81  37  20 N8        29.92F
HARRISBURG     MOSUNNY   77  41  27 W14       29.91F
YORK           SUNNY     79  41  25 W7        29.93F
$$

PAZ038>040-043-044-047-048-054-055-060>062-067>071-182100-
EASTERN PENNSYLVANIA

CITY           SKY/WX    TMP DP  RH WIND       PRES   REMARKS
SCRANTON       SUNNY     80  36  20 W20G25    29.89F
MOUNT POCONO   MOSUNNY   72  37  28 W13G24    29.92F
ALLENTOWN      SUNNY     80  40  23 W14G23    29.90F
QUAKERTOWN*    PTCLDY    77  41  27 NW10G18   29.92F
READING        SUNNY     79  40  24 W14       29.91F
LANCASTER      SUNNY     77  42  28 W13       29.92F
COATESVILLE    CLEAR     75  43  31 NW9       29.95F
POTTSTOWN      SUNNY     78  42  27 NW9       29.93F
BLUE BELL      SUNNY     79  41  25 W8G16     29.90F
DOYLESTOWN     MOSUNNY   77  40  26 W12       29.90F
WILLOW GROVE   NOT AVBL
NORTH PHILA    MOSUNNY   81  40  23 W15       29.92F
PHILADELPHIA   MOSUNNY   80  37  21 SW13      29.92F
$$



USA.gov is the U.S. government's official web portal to all federal, state and local government web resources and services.